User: anonymous   Login
Location: Newark
(3.0500°N, 36.0167°E)
Time: 14:41:14
(UTC+00:00)
Language:

Courier 1B Rocket - Orbit

View from above orbital plane
View from above orbital plane
View from above satellite
View from above satellite

Ground track
Ground track

The orbit data is extracted from the following two-line orbital elements,

1    59U 60013B   19234.68451915 +.00000120 +00000-0 +40358-4 0  9999
2    59 028.2504 318.0461 0189265 290.1741 067.8541 13.52970145905973
Epoch (UTC): 22 August 2019 16:25:42
Eccentricity: 0.0189265
inclination: 28.2504°
perigee height: 920 km
apogee height: 1202 km
right ascension of ascending node: 318.0461°
argument of perigee: 290.1741°
revolutions per day: 13.52970145
mean anomaly at epoch: 67.8541°
orbit number at epoch: 90597

The dashed part of the orbit path shows where the satellite is in the earth's shadow,  

DLR